Date,TemperatureHighF,TemperatureAvgF,TemperatureLowF,DewpointHighF,DewpointAvgF,DewpointLowF,HumidityHigh,HumidityAvg,HumidityLow,PressureMaxIn,PressureMinIn,WindSpeedMaxMPH,WindSpeedAvgMPH,GustSpeedMaxMPH,PrecipitationSumIn
2013-1-1,50,45,40,43,33,18,90,65,35,30.08,29.88,6,2,0,0.00
2013-1-2,41,38,34,38,29,19,94,71,50,30.19,29.94,7,1,0,0.00
2013-1-3,45,36,32,27,24,17,73,61,34,30.24,30.14,4,1,0,0.00
2013-1-4,42,34,28,22,21,19,69,58,44,30.31,30.20,9,3,19,0.00
2013-1-5,49,38,31,33,24,21,83,58,34,30.40,30.21,8,2,14,0.00
2013-1-6,47,42,34,33,31,28,82,66,53,30.22,30.05,6,2,0,0.00
2013-1-7,49,38,27,30,26,23,87,62,39,30.45,30.16,5,1,13,0.00
2013-1-8,56,35,22,34,26,20,93,73,31,30.46,30.35,4,0,0,0.00
2013-1-9,60,46,29,49,39,26,92,77,57,30.42,30.34,6,1,13,0.00
2013-1-10,58,49,39,38,35,31,80,60,37,30.54,30.42,3,0,0,0.00
2013-1-11,46,42,40,40,38,33,97,87,66,30.42,30.13,1,0,0,0.00
2013-1-12,73,53,40,60,49,39,98,88,62,30.16,30.06,1,0,0,0.00
2013-1-13,70,59,53,61,56,52,99,91,72,30.06,29.95,1,0,0,0.00
2013-1-14,61,55,48,59,53,47,98,94,86,30.20,29.98,3,0,0,0.00
2013-1-15,48,42,38,47,41,37,98,97,97,30.25,30.09,2,0,0,0.00
2013-1-16,48,41,37,45,39,36,99,97,90,30.10,29.93,1,0,0,0.00
2013-1-17,44,36,32,40,35,31,98,94,85,30.15,30.00,4,0,0,0.00
2013-1-18,40,34,28,31,26,21,90,74,49,30.51,30.15,7,1,0,0.00
2013-1-19,51,36,26,30,27,24,92,73,38,30.46,30.10,7,1,0,0.00
2013-1-20,54,45,38,33,28,20,68,52,33,30.10,29.97,10,3,18,0.00
2013-1-21,50,39,29,27,19,6,75,46,28,30.07,29.85,12,3,19,0.00
2013-1-22,31,24,18,8,0,-4,42,35,27,30.28,29.97,13,3,18,0.00
2013-1-23,32,25,17,18,6,-2,65,45,25,30.35,30.05,8,2,16,0.00
2013-1-24,37,26,16,22,9,1,68,49,31,30.53,29.98,11,2,23,0.00
2013-1-25,24,20,16,20,14,6,90,76,47,30.52,30.08,1,0,0,0.00
2013-1-26,42,33,22,27,23,19,93,68,52,30.43,30.07,10,2,12,0.00
2013-1-27,38,28,18,26,22,15,93,77,60,30.59,30.43,2,0,0,0.00
2013-1-28,55,41,31,47,36,26,96,84,65,30.47,30.16,2,0,0,0.00
2013-1-29,72,59,50,53,49,45,91,70,49,30.16,29.94,6,2,0,0.00
2013-1-30,72,62,51,61,56,47,98,83,67,29.94,29.30,10,2,24,0.00
2013-1-31,50,36,29,47,22,18,91,57,43,29.91,29.29,11,4,24,0.00
2013-2-1,39,26,20,30,11,3,84,55,36,30.38,29.77,11,3,20,0.00
2013-2-2,34,24,14,28,17,6,93,74,44,30.38,30.03,2,0,0,0.00
2013-2-3,40,34,30,29,24,19,92,68,55,30.02,29.84,10,3,22,0.00
2013-2-4,41,31,25,24,20,14,84,63,48,30.12,29.94,6,1,18,0.00
2013-2-5,51,41,28,37,32,24,85,70,55,29.95,29.88,8,1,14,0.00
2013-2-6,56,43,30,35,29,24,81,60,31,30.28,29.93,6,1,13,0.00
2013-2-7,39,35,29,32,30,25,95,81,73,30.37,30.12,2,0,0,0.00
2013-2-8,51,37,32,40,32,25,97,82,55,30.12,29.83,10,2,19,0.00
2013-2-9,36,34,31,25,20,16,65,57,49,30.25,30.07,11,3,17,0.00
2013-2-11,54,53,52,39,33,27,57,46,37,29.90,29.89,6,4,18,0.00
2013-2-12,58,48,41,28,24,21,52,39,26,30.04,29.88,9,3,18,0.00
2013-2-13,44,42,40,42,35,27,96,78,53,29.92,29.59,4,1,14,0.00
2013-2-14,40,37,34,32,27,24,73,67,63,29.97,29.82,8,2,14,0.00
2013-2-15,60,46,34,39,33,28,85,63,32,30.07,29.88,7,2,14,0.00
2013-2-16,39,34,27,29,20,14,67,57,42,30.00,29.85,7,1,13,0.00
2013-2-17,31,25,19,17,7,2,81,48,34,30.24,29.92,8,3,18,0.00
2013-2-18,54,36,22,25,16,7,73,46,28,30.37,30.14,4,1,0,0.00
2013-2-19,53,40,30,41,27,13,91,63,29,30.14,29.76,13,2,23,0.00
2013-2-20,44,36,30,17,12,9,49,38,25,30.16,29.94,13,4,23,0.00
2013-2-21,52,38,27,21,16,13,58,43,25,30.26,30.11,10,2,12,0.00
2013-2-22,40,34,30,31,27,19,90,77,44,30.33,30.15,2,0,0,0.00
2013-2-23,35,34,33,33,32,31,95,91,87,30.16,30.01,1,0,0,0.00
2013-2-24,55,48,39,25,22,20,52,37,29,30.06,29.91,6,2,14,0.00
2013-2-25,44,33,25,26,23,21,86,67,45,30.20,30.05,3,0,0,0.00
2013-2-26,39,35,30,38,30,22,97,85,64,30.18,29.64,2,0,0,0.00
2013-2-27,49,42,38,40,35,32,97,77,56,29.75,29.60,7,2,14,0.00
2013-2-28,41,38,36,33,28,25,78,66,53,29.84,29.68,15,3,18,0.00
2013-3-1,40,38,36,28,26,23,69,62,56,29.92,29.80,7,2,12,0.00
2013-3-2,36,34,30,25,21,17,64,59,53,29.94,29.86,6,2,13,0.00
2013-3-3,34,30,28,19,17,13,65,58,52,30.01,29.90,6,2,17,0.00
2013-3-4,50,35,26,18,13,9,59,43,19,30.12,30.00,12,2,13,0.00
2013-3-5,49,39,32,36,28,17,96,67,44,30.08,29.64,2,0,0,0.00
2013-3-6,40,35,32,32,29,26,97,77,64,30.11,29.61,11,2,17,0.00
2013-3-7,42,38,36,30,27,25,72,64,54,30.27,30.09,7,2,17,0.00
2013-3-8,50,41,33,27,25,22,75,53,37,30.35,30.22,7,2,14,0.00
2013-3-9,62,42,27,32,28,23,88,62,31,30.38,30.24,3,0,0,0.00
2013-3-10,66,46,30,37,32,27,90,62,29,30.31,30.16,3,0,12,0.00
2013-3-11,56,48,38,51,38,29,91,71,42,30.19,29.85,1,0,0,0.00
2013-3-12,57,51,40,52,42,30,98,73,44,29.98,29.70,8,2,15,0.00
2013-3-13,45,39,32,31,25,16,76,59,41,30.17,29.95,9,3,19,0.00
2013-3-14,48,36,28,20,16,14,65,45,26,30.27,30.14,14,3,18,0.00
2013-3-15,64,48,33,38,27,16,54,44,33,30.17,29.83,10,3,14,0.00
2013-3-16,76,57,42,54,44,35,93,65,38,29.84,29.55,12,2,20,0.00
2013-3-17,57,52,49,50,48,46,92,86,76,29.93,29.80,1,0,0,0.00
2013-3-24,33,32,31,32,31,30,96,95,94,29.67,29.60,2,0,0,0.00
2013-3-25,43,35,30,32,28,22,97,78,51,29.79,29.54,9,2,23,0.00
2013-3-26,46,39,36,30,26,24,68,60,49,30.11,29.78,9,3,14,0.00
2013-3-27,45,39,35,28,25,22,67,57,43,30.24,30.11,7,3,15,0.00
2013-3-28,50,42,36,28,25,20,70,52,37,30.28,30.21,7,2,14,0.00
2013-3-29,59,43,31,29,26,23,78,54,27,30.32,30.16,6,1,0,0.00
2013-3-30,65,48,33,35,30,28,84,55,26,30.25,30.04,5,1,0,0.00
2013-3-31,61,49,41,52,41,-100,96,80,61,30.06,29.75,6,0,0,0.00
2013-4-1,61,51,41,45,39,27,88,64,44,30.00,29.82,11,2,18,0.00
2013-4-2,54,43,34,28,21,15,68,45,21,30.16,30.00,6,2,14,0.00
2013-4-3,57,50,38,19,15,11,45,26,18,30.34,30.16,6,2,0,0.00
2013-4-4,43,35,30,32,23,16,96,65,38,30.39,30.03,7,0,0,0.00
2013-4-5,64,45,33,40,34,30,97,72,29,30.04,29.91,6,1,14,0.00
2013-4-6,64,49,32,39,33,29,90,58,34,30.25,30.03,4,1,0,0.00
2013-4-7,74,55,37,46,38,29,87,56,35,30.21,30.00,7,1,0,0.00
2013-4-8,81,64,48,52,47,43,83,56,28,30.10,29.94,5,1,13,0.00
2013-4-9,86,71,55,55,52,49,79,53,30,30.11,29.95,9,1,12,0.00
2013-4-10,91,76,63,60,54,46,71,50,22,30.00,29.80,8,2,12,0.00
2013-4-11,86,74,64,61,55,48,74,54,27,29.85,29.64,6,2,14,0.00
2013-4-12,74,64,59,65,55,37,98,77,36,29.77,29.56,7,1,18,0.00
2013-4-13,73,61,50,41,34,29,61,39,20,29.96,29.76,8,3,19,0.00
2013-4-14,79,64,46,45,37,31,71,41,23,30.06,29.93,4,1,0,0.00
2013-4-15,67,56,52,55,52,43,97,87,42,30.22,29.99,1,0,0,0.00
2013-4-16,80,65,56,64,58,53,98,80,55,30.27,30.10,2,0,0,0.00
2013-4-17,81,67,59,63,59,56,92,77,51,30.17,30.05,5,1,0,0.00
2013-4-18,80,69,58,64,59,54,96,73,45,30.10,29.90,6,1,0,0.00
2013-4-19,72,66,52,65,58,38,94,78,65,29.90,29.60,5,2,15,0.00
2013-4-20,62,51,42,38,30,24,64,45,24,30.29,29.83,8,2,20,0.00
2013-4-21,59,46,32,37,33,30,93,64,39,30.51,30.29,2,0,0,0.00
2013-4-22,64,48,33,36,33,26,93,60,24,30.49,30.28,3,1,0,0.00
2013-4-23,74,56,41,50,44,35,83,65,41,30.32,30.05,3,0,0,0.00
2013-4-24,80,60,44,61,50,43,98,73,35,30.09,29.84,6,1,14,0.00
2013-4-25,68,52,38,45,32,18,78,50,19,30.29,30.04,7,2,16,0.00
2013-4-26,72,54,37,41,36,27,79,52,31,30.44,30.28,2,0,0,0.00
2013-4-27,54,50,48,45,43,41,83,75,65,30.35,30.32,1,0,0,0.00
2013-4-29,70,61,51,59,56,50,98,86,67,30.06,29.95,2,0,0,0.00
2013-4-30,73,62,56,59,56,54,98,85,59,30.19,30.01,2,0,0,0.00
2013-5-1,71,60,55,57,53,44,96,78,45,30.33,30.19,2,0,0,0.00
2013-5-2,58,56,54,49,44,41,74,66,58,30.34,30.29,1,0,0,0.00
2013-5-6,55,55,55,55,55,55,99,99,99,29.93,29.91,0,0,0,0.00
2013-5-7,66,56,50,59,55,48,100,96,77,29.92,29.85,2,0,0,0.00
2013-5-8,63,53,49,56,52,48,99,95,77,29.99,29.91,2,0,0,0.00
2013-5-9,82,64,51,59,53,49,96,72,36,30.03,29.95,4,1,0,0.00
2013-5-10,83,65,56,63,55,-100,96,75,38,30.02,29.85,7,1,22,0.00
2013-5-11,78,65,60,65,60,58,97,87,60,29.90,29.72,4,1,0,0.00
2013-5-12,64,57,49,58,39,-100,89,55,30,30.03,29.79,12,2,13,0.00
2013-5-13,62,51,39,38,33,27,85,54,28,30.17,30.03,5,1,14,0.00
2013-5-14,74,51,36,48,39,34,94,69,28,30.22,29.98,3,0,12,0.00
2013-5-15,91,66,48,61,53,45,95,67,27,30.01,29.80,6,1,14,0.00
2013-5-16,84,64,66,60,35,-100,75,58,41,29.93,29.83,5,2,0,0.00
2013-5-17,80,69,63,64,50,-100,94,70,49,30.07,29.93,2,0,0,0.00
2013-5-18,69,64,62,65,63,61,99,95,83,30.13,30.05,2,0,0,0.00
2013-5-19,69,65,62,68,64,62,99,98,94,30.11,30.01,1,0,0,0.00
2013-5-20,79,70,64,72,67,64,99,89,67,30.07,29.95,5,0,0,0.00
2013-5-21,91,74,63,69,66,63,99,77,40,29.99,29.84,5,0,0,0.00
2013-5-22,86,70,61,73,64,59,98,82,63,29.92,29.82,7,1,0,0.00
2013-5-23,84,69,62,67,63,60,98,82,48,29.90,29.72,6,1,0,0.00
2013-5-24,64,59,52,60,46,35,91,64,38,30.18,29.79,8,2,14,0.00
2013-5-25,71,58,47,38,32,24,61,41,22,30.25,30.15,15,2,15,0.00
2013-5-26,76,62,49,45,41,36,77,49,26,30.24,30.13,5,1,0,0.00
2013-5-27,77,63,49,59,49,42,86,64,40,30.27,30.10,3,0,0,0.00
2013-5-28,89,71,54,64,59,53,97,70,38,30.18,30.04,5,1,0,0.00
2013-5-29,91,75,60,67,62,58,97,68,33,30.14,30.05,8,1,0,0.00
2013-5-30,90,74,59,68,63,58,96,69,45,30.19,30.08,5,0,0,0.00
2013-5-31,89,73,59,69,63,58,96,73,45,30.15,30.01,6,1,0,0.00
2013-6-1,91,75,60,69,63,59,97,71,40,30.05,29.91,3,1,12,0.00
2013-6-2,80,72,67,70,65,-100,97,84,68,29.94,29.84,1,0,0,0.00
2013-6-3,81,71,64,67,63,59,98,79,51,29.94,29.82,5,1,0,0.00
2013-6-4,82,68,57,64,59,55,94,76,47,30.07,29.94,3,0,0,0.00
2013-6-5,74,66,59,65,61,55,98,86,66,30.12,30.00,2,0,0,0.00
2013-6-6,66,63,60,65,62,59,99,97,93,30.01,29.80,1,0,0,0.00
2013-6-7,75,67,64,71,65,60,100,93,78,29.82,29.59,3,0,0,0.00
2013-6-8,86,71,61,67,62,57,96,75,45,30.05,29.79,3,0,0,0.00
2013-6-9,88,72,64,70,66,63,97,83,52,30.12,29.98,2,0,0,0.00
2013-6-10,83,70,65,74,68,64,99,94,63,30.03,29.80,4,0,15,0.00
2013-6-11,84,70,63,66,64,62,98,81,51,29.91,29.83,3,1,12,0.00
2013-6-12,91,72,67,71,65,62,87,79,50,29.91,29.81,2,1,0,0.00
2013-6-13,84,77,66,72,69,65,95,78,63,29.67,29.54,5,2,0,0.00
2013-6-14,80,72,62,59,56,55,82,59,45,30.00,29.88,4,1,0,0.00
2013-6-15,82,65,57,62,58,54,92,78,41,30.10,30.00,4,1,0,0.00
2013-6-16,84,70,60,68,62,57,91,77,55,30.03,29.93,5,1,0,0.00
2013-6-17,88,75,66,72,67,63,96,80,50,29.98,29.85,6,1,15,0.00
2013-6-18,73,72,71,67,66,66,87,82,79,29.80,29.79,0,0,0,0.00
2013-6-19,81,75,65,69,66,63,93,74,62,30.01,29.97,3,1,0,0.00
2013-6-22,86,79,73,67,65,63,75,62,47,30.20,30.09,1,0,0,0.00
2013-6-23,87,73,66,70,67,64,97,84,48,30.16,30.05,4,1,0,0.00
2013-6-24,90,72,67,71,68,65,95,87,54,30.14,30.02,4,0,0,0.00
2013-6-25,88,77,68,72,69,66,94,78,56,30.06,29.92,3,1,0,0.00
2013-6-26,90,74,68,73,68,65,98,84,53,29.96,29.84,6,1,16,0.00
2013-6-27,84,72,67,71,68,66,99,88,64,29.87,29.67,6,1,12,0.00
2013-6-28,90,79,71,71,67,62,90,71,42,29.69,29.47,6,2,13,0.00
2013-6-29,88,73,66,70,66,62,96,79,45,29.67,29.54,4,1,0,0.00
2013-6-30,87,72,65,72,68,64,97,88,59,29.80,29.66,2,0,0,0.00
2013-7-1,84,73,68,71,69,67,98,88,63,29.91,29.78,2,0,0,0.00
2013-7-2,75,72,69,72,69,68,99,92,84,30.11,29.91,1,0,0,0.00
2013-7-3,77,71,69,75,71,69,99,98,91,30.19,30.08,1,0,0,0.00
2013-7-4,79,72,69,76,71,69,100,97,83,30.22,30.14,1,0,0,0.00
2013-7-5,85,76,69,75,71,69,99,86,68,30.20,30.11,4,0,0,0.00
2013-7-6,85,73,67,73,69,66,99,88,61,30.19,30.06,3,0,0,0.00
2013-7-7,85,71,68,75,69,67,98,93,65,30.11,30.02,4,0,13,0.00
2013-7-8,85,69,66,71,64,-100,99,93,60,30.13,30.05,3,0,0,0.00
2013-7-9,91,78,69,72,69,65,94,77,43,30.10,29.99,2,1,0,0.00
2013-7-10,87,73,70,75,67,-100,98,87,68,30.02,29.89,3,0,0,0.00
2013-7-11,84,75,70,74,71,69,99,89,66,29.91,29.82,1,0,0,0.00
2013-7-12,78,70,67,69,66,64,98,88,69,30.03,29.85,2,0,0,0.00
2013-7-13,77,70,66,72,68,64,98,94,78,30.16,30.02,2,0,0,0.00
2013-7-14,80,72,70,74,71,69,99,95,78,30.29,30.16,3,0,0,0.00
2013-7-15,88,75,68,73,70,67,99,86,56,30.31,30.20,2,0,0,0.00
2013-7-16,93,76,69,74,70,67,96,84,47,30.26,30.16,3,1,0,0.00
2013-7-17,92,77,70,77,72,69,96,85,56,30.22,30.10,3,1,0,0.00
2013-7-18,94,78,71,77,72,69,95,84,53,30.13,29.99,4,1,0,0.00
2013-7-19,94,79,72,76,72,68,94,79,47,30.03,29.88,5,1,0,0.00
2013-7-20,78,74,73,72,70,69,91,87,76,29.93,29.87,2,0,0,0.00
2013-7-21,82,73,70,72,69,68,93,87,70,29.91,29.86,3,1,0,0.00
2013-7-22,86,76,69,72,70,68,97,82,60,29.89,29.75,4,1,14,0.00
2013-7-23,89,76,70,71,69,67,94,79,53,29.75,29.68,6,1,0,0.00
2013-7-24,86,77,71,69,66,63,88,71,48,29.85,29.69,4,1,0,0.00
2013-7-25,82,73,66,66,63,60,91,72,54,30.00,29.85,1,0,0,0.00
2013-7-26,87,71,61,70,64,59,94,80,54,30.08,29.97,1,0,0,0.00
2013-7-27,74,70,68,68,68,66,98,93,80,30.00,29.91,0,0,0,0.00
2013-7-28,80,68,66,70,66,65,98,94,67,29.96,29.87,0,0,0,0.00
2013-7-29,82,69,60,66,59,53,95,74,43,30.14,29.96,4,0,0,0.00
2013-7-30,85,67,57,65,59,55,93,79,45,30.23,30.11,4,1,0,0.00
2013-7-31,75,68,65,67,65,64,96,89,69,30.14,29.98,1,0,0,0.00
2013-8-1,85,71,65,71,66,64,99,87,55,29.98,29.83,2,0,0,0.00
2013-8-2,84,72,64,66,64,61,95,76,47,30.00,29.90,5,1,0,0.00
2013-8-3,81,69,63,69,64,61,93,86,64,29.98,29.89,3,0,0,0.00
2013-8-4,83,71,65,68,63,57,98,80,43,30.02,29.89,3,0,0,0.00
2013-8-5,78,67,60,66,61,59,95,82,56,30.07,29.97,2,0,0,0.00
2013-8-6,86,72,65,72,67,63,98,83,55,29.98,29.91,2,0,0,0.00
2013-8-7,80,73,69,74,70,68,99,94,79,30.02,29.96,1,0,0,0.00
2013-8-8,83,74,69,76,71,68,98,92,72,30.00,29.95,1,0,0,0.00
2013-8-9,87,74,69,77,72,69,100,91,67,29.96,29.90,3,0,0,0.00
2013-8-10,87,78,72,73,71,69,93,81,59,30.03,29.96,3,1,0,0.00
2013-8-11,83,74,70,72,71,69,98,91,66,30.06,29.96,2,0,0,0.00